Farmington, NM

2:11 AM MDT on April 20, 2018 (GMT -0600)
Four Corners Regional

Weather History for KFMN - February, 2012

Change the Weather History Date:

Wednesday, February 15, 2012

  Actual Average Record
Temperature  
Mean Temperature 34 °F -  
Max Temperature 42 °F 47 °F 66 °F (2014)
Min Temperature 26 °F 23 °F 15 °F (1990)
Degree Days  
Heating Degree Days 31    
Moisture  
Dew Point 22 °F    
Average Humidity 65    
Maximum Humidity 85    
Minimum Humidity 40    
Precipitation  
Precipitation 0.00 in - - ()
Sea Level Pressure  
Sea Level Pressure 30.03 in    
Wind  
Wind Speed 4 mph (ESE)    
Max Wind Speed 14 mph    
Max Gust Speed 20 mph    
Visibility 10 miles    
Events      
Averages and records for this station are not official NWS values.
T = Trace of Precipitation, MM = Missing Value Source: NWS Daily Summary

Daily Weather History Graph

Daily Weather History Graph

Search for Another Location

Airport or City:

Astronomy

Feb. 15, 2012 Rise Set
Actual Time 7:01 AM MST 5:52 PM MST
Civil Twilight 6:35 AM MST 6:19 PM MST
Nautical Twilight 6:04 AM MST 6:49 PM MST
Astronomical Twilight 5:34 AM MST 7:19 PM MST
Moon 1:53 AM MST (2/15) 11:56 AM MST (2/15)
Length of Visible Light 11h 44m
Length of Day
10h 51m
Last Quarter, 38% of the Moon is Illuminated
Feb 15
Last Quarter
Feb 21
New
Feb 29
First Quarter
Mar 8
Full
Mar 14
Last Quarter

Hourly Weather History & Observations

Time (MST) Temp. Windchill Dew Point Humidity Pressure Visibility Wind Dir Wind Speed Gust Speed Precip Events Conditions
12:53 AM 30.0 °F - 26.1 °F 85% 29.88 in 10.0 mi Calm Calm - N/A   Mostly Cloudy
1:53 AM 28.9 °F - 25.0 °F 85% 29.88 in 10.0 mi Calm Calm - N/A   Scattered Clouds
2:53 AM 28.0 °F 22.8 °F 24.1 °F 85% 29.90 in 10.0 mi WSW 4.6 mph - N/A   Clear
3:53 AM 28.0 °F - 23.0 °F 81% 29.92 in 10.0 mi Calm Calm - N/A   Clear
4:53 AM 27.0 °F - 23.0 °F 85% 29.95 in 10.0 mi Calm Calm - N/A   Clear
5:53 AM 26.1 °F - 21.9 °F 84% 29.99 in 10.0 mi Calm Calm - N/A   Clear
6:53 AM 27.0 °F - 21.0 °F 78% 30.01 in 10.0 mi Calm Calm - N/A   Clear
7:53 AM 27.0 °F 20.5 °F 23.0 °F 85% 30.04 in 10.0 mi East 5.8 mph - N/A   Clear
8:53 AM 32.0 °F 27.5 °F 24.1 °F 73% 30.05 in 10.0 mi ESE 4.6 mph - N/A   Clear
9:53 AM 35.1 °F 30.1 °F 23.0 °F 61% 30.04 in 10.0 mi ESE 5.8 mph - N/A   Clear
10:53 AM 37.0 °F 32.4 °F 21.9 °F 54% 30.04 in 10.0 mi SE 5.8 mph - N/A   Clear
11:53 AM 37.9 °F 33.5 °F 21.0 °F 51% 30.06 in 10.0 mi East 5.8 mph - N/A   Overcast
12:53 PM 39.0 °F 34.8 °F 19.9 °F 46% 30.02 in 10.0 mi East 5.8 mph - N/A   Mostly Cloudy
1:53 PM 41.0 °F 34.7 °F 19.9 °F 43% 30.00 in 10.0 mi ESE 10.4 mph 19.6 mph N/A   Overcast
2:53 PM 42.1 °F 35.7 °F 19.0 °F 40% 30.00 in 10.0 mi ESE 11.5 mph - N/A   Mostly Cloudy
3:53 PM 41.0 °F 33.5 °F 19.0 °F 41% 30.01 in 10.0 mi SE 13.8 mph 18.4 mph N/A   Mostly Cloudy
4:53 PM 39.9 °F 32.5 °F 19.9 °F 45% 30.04 in 10.0 mi ESE 12.7 mph - N/A   Overcast
5:53 PM 37.9 °F 30.5 °F 21.0 °F 51% 30.07 in 10.0 mi SE 11.5 mph - N/A   Scattered Clouds
6:53 PM 35.1 °F 28.6 °F 19.9 °F 54% 30.09 in 10.0 mi ESE 8.1 mph - N/A   Clear
7:53 PM 32.0 °F 27.5 °F 19.9 °F 61% 30.12 in 10.0 mi East 4.6 mph - N/A   Clear
8:53 PM 30.9 °F 24.3 °F 19.9 °F 64% 30.12 in 10.0 mi East 6.9 mph - N/A   Clear
9:53 PM 30.0 °F 23.2 °F 19.9 °F 66% 30.12 in 10.0 mi East 6.9 mph - N/A   Clear
10:53 PM 28.0 °F 20.8 °F 21.0 °F 75% 30.13 in 10.0 mi East 6.9 mph - N/A   Clear
11:53 PM 27.0 °F 21.6 °F 21.0 °F 78% 30.14 in 10.0 mi East 4.6 mph - N/A   Clear